| time (UTC) | temp F | wind direction | speed MPH | gust MPH | rain 1hr in | rain 24hr in | rain mn in | humidity % | barometer mb |
| 20260905052816 | 83 | 0 | 1.0 | 2.0 | 0.00 | 0.00 | 0.00 | ||
| 20260905052337 | 83 | 0 | 0.0 | 1.0 | 0.00 | 0.00 | 0.00 | ||
| 20260905051818 | 83 | 0 | 0.0 | 2.0 | 0.00 | 0.00 | 0.00 | ||
| 20260905051341 | 83 | 0 | 0.0 | 2.0 | 0.00 | 0.00 | 0.00 | ||
| 20260905050833 | 84 | 0 | 0.0 | 2.0 | 0.00 | 0.00 | 0.00 | ||
| 20260905045818 | 84 | 0 | 0.0 | 1.0 | 0.00 | 0.00 | 0.00 | ||
| 20260905045324 | 85 | 0 | 0.0 | 1.0 | 0.00 | 0.00 | 0.00 | ||
| 20260905044824 | 85 | 0 | 0.0 | 1.0 | 0.00 | 0.00 | 0.00 | ||
| 20260905044326 | 85 | 0 | 0.0 | 1.0 | 0.00 | 0.00 | 0.00 | ||
| 20260905043818 | 85 | 0 | 0.0 | 2.0 | 0.00 | 0.00 | 0.00 | ||
| 20260905043318 | 86 | 0 | 1.0 | 2.0 | 0.00 | 0.00 | 0.00 | ||
| 20260905042822 | 86 | 0 | 1.0 | 5.0 | 0.00 | 0.00 | 0.00 | ||
| 20260905042323 | 86 | 0 | 1.0 | 5.0 | 0.00 | 0.00 | 0.00 | ||
| 20260905041328 | 87 | 359 | 1.0 | 3.0 | 0.00 | 0.00 | 0.00 | ||
| 20260905040819 | 87 | 0 | 1.0 | 3.0 | 0.00 | 0.00 | 0.00 | ||
| 20260905040321 | 87 | 0 | 1.0 | 5.0 | 0.00 | 0.00 | 0.00 | ||
| 20260905035327 | 88 | 0 | 1.0 | 5.0 | 0.00 | 0.00 | 0.00 | ||
| 20260905034827 | 88 | 0 | 2.0 | 5.0 | 0.00 | 0.00 | 0.00 | ||
| 20260905034328 | 88 | 0 | 1.0 | 5.0 | 0.00 | 0.00 | 0.00 | ||
| 20260905033825 | 89 | 0 | 2.0 | 8.0 | 0.00 | 0.00 | 0.00 | ||
| 20260905033324 | 89 | 0 | 3.0 | 8.0 | 0.00 | 0.00 | 0.00 | ||
| 20260905032826 | 89 | 0 | 2.0 | 5.0 | 0.00 | 0.00 | 0.00 | ||
| 20260905032326 | 89 | 0 | 2.0 | 5.0 | 0.00 | 0.00 | 0.00 | ||
| 20260905031829 | 89 | 0 | 3.0 | 5.0 | 0.00 | 0.00 | 0.00 | ||
| 20260905031330 | 90 | 0 | 3.0 | 5.0 | 0.00 | 0.00 | 0.00 | ||
| 20260905030822 | 90 | 353 | 2.0 | 5.0 | 0.00 | 0.00 | 0.00 | ||
| 20260905030325 | 90 | 0 | 2.0 | 5.0 | 0.00 | 0.00 | 0.00 | ||
| 20260905025826 | 90 | 0 | 2.0 | 5.0 | 0.00 | 0.00 | 0.00 | ||
| 20260905025326 | 90 | 0 | 2.0 | 5.0 | 0.00 | 0.00 | 0.00 | ||
| 20260905024329 | 91 | 0 | 3.0 | 10.0 | 0.00 | 0.00 | 0.00 | ||
| 20260905023823 | 91 | 0 | 3.0 | 10.0 | 0.00 | 0.00 | 0.00 | ||
| 20260905022832 | 92 | 0 | 4.0 | 8.0 | 0.00 | 0.00 | 0.00 | ||
| 20260905022318 | 92 | 0 | 4.0 | 8.0 | 0.00 | 0.00 | 0.00 | ||
| 20260905020818 | 93 | 0 | 5.0 | 10.0 | 0.00 | 0.00 | 0.00 | ||
| 20260905015821 | 94 | 0 | 3.0 | 12.0 | 0.00 | 0.00 | 0.00 | ||
| 20260905015323 | 94 | 0 | 4.0 | 12.0 | 0.00 | 0.00 | 0.00 | ||
| 20260905014328 | 95 | 0 | 8.0 | 12.0 | 0.00 | 0.00 | 0.00 | ||
| 20260905013822 | 95 | 348 | 4.0 | 12.0 | 0.00 | 0.00 | 0.00 | ||
| 20260905012828 | 96 | 0 | 8.0 | 17.0 | 0.00 | 0.00 | 0.00 | ||
| 20260905012327 | 96 | 357 | 8.0 | 17.0 | 0.00 | 0.00 | 0.00 | ||
| 20260905011829 | 96 | 0 | 11.0 | 17.0 | 0.00 | 0.00 | 0.00 | ||
| 20260905011329 | 97 | 0 | 6.0 | 14.0 | 0.00 | 0.00 | 0.00 | ||
| 20260905010823 | 97 | 358 | 8.0 | 18.0 | 0.00 | 0.00 | 0.00 | ||
| 20260905010321 | 97 | 359 | 10.0 | 18.0 | 0.00 | 0.00 | 0.00 | ||
| 20260905005828 | 98 | 0 | 8.0 | 16.0 | 0.00 | 0.00 | 0.00 | ||
| 20260905005328 | 98 | 355 | 8.0 | 15.0 | 0.00 | 0.00 | 0.00 | ||
| 20260905004830 | 98 | 349 | 7.0 | 15.0 | 0.00 | 0.00 | 0.00 | ||
| 20260905002828 | 97 | 0 | 6.0 | 15.0 | 0.00 | 0.00 | 0.00 | ||
| 20260905002330 | 97 | 358 | 9.0 | 14.0 | 0.00 | 0.00 | 0.00 | ||
| 20260905001831 | 97 | 0 | 4.0 | 15.0 | 0.00 | 0.00 | 0.00 | ||
| 20260905000830 | 97 | 0 | 12.0 | 17.0 | 0.00 | 0.00 | 0.00 | ||
| 20260904235835 | 97 | 0 | 8.0 | 17.0 | 0.00 | 0.00 | 0.00 | ||
| 20260904235335 | 97 | 0 | 5.0 | 16.0 | 0.00 | 0.00 | 0.00 | ||
| 20260904234818 | 97 | 0 | 8.0 | 16.0 | 0.00 | 0.00 | 0.00 | ||
| 20260904234340 | 97 | 354 | 6.0 | 12.0 | 0.00 | 0.00 | 0.00 | ||
| 20260904233834 | 97 | 0 | 5.0 | 12.0 | 0.00 | 0.00 | 0.00 | ||
| 20260904233318 | 97 | 284 | 5.0 | 18.0 | 0.00 | 0.00 | 0.00 | ||
| 20260904232820 | 97 | 0 | 11.0 | 18.0 | 0.00 | 0.00 | 0.00 | ||
| 20260904232323 | 97 | 356 | 8.0 | 16.0 | 0.00 | 0.00 | 0.00 | ||
| 20260904231823 | 97 | 0 | 8.0 | 13.0 | 0.00 | 0.00 | 0.00 | ||
| 20260904231345 | 97 | 0 | 8.0 | 15.0 | 0.00 | 0.00 | 0.00 | ||
| 20260904225825 | 97 | 0 | 9.0 | 18.0 | 0.00 | 0.00 | 0.00 | ||
| 20260904225324 | 97 | 0 | 10.0 | 18.0 | 0.00 | 0.00 | 0.00 | ||
| 20260904224826 | 97 | 359 | 8.0 | 17.0 | 0.00 | 0.00 | 0.00 | ||
| 20260904224328 | 97 | 0 | 9.0 | 14.0 | 0.00 | 0.00 | 0.00 | ||
| 20260904223820 | 97 | 357 | 6.0 | 17.0 | 0.00 | 0.00 | 0.00 | ||
| 20260904223320 | 97 | 0 | 5.0 | 17.0 | 0.00 | 0.00 | 0.00 | ||
| 20260904222322 | 97 | 0 | 10.0 | 18.0 | 0.00 | 0.00 | 0.00 | ||
| 20260904221823 | 97 | 359 | 8.0 | 22.0 | 0.00 | 0.00 | 0.00 | ||
| 20260904221330 | 97 | 0 | 12.0 | 22.0 | 0.00 | 0.00 | 0.00 | ||
| 20260904220823 | 97 | 354 | 8.0 | 18.0 | 0.00 | 0.00 | 0.00 | ||
| 20260904220325 | 97 | 358 | 12.0 | 18.0 | 0.00 | 0.00 | 0.00 | ||
| 20260904215826 | 97 | 0 | 8.0 | 20.0 | 0.00 | 0.00 | 0.00 | ||
| 20260904215330 | 97 | 0 | 13.0 | 20.0 | 0.00 | 0.00 | 0.00 | ||
| 20260904214332 | 97 | 0 | 11.0 | 16.0 | 0.00 | 0.00 | 0.00 | ||
| 20260904213821 | 96 | 355 | 7.0 | 16.0 | 0.00 | 0.00 | 0.00 | ||
| 20260904213322 | 96 | 0 | 9.0 | 16.0 | 0.00 | 0.00 | 0.00 | ||
| 20260904212824 | 96 | 0 | 7.0 | 18.0 | 0.00 | 0.00 | 0.00 | ||
| 20260904212325 | 97 | 0 | 11.0 | 18.0 | 0.00 | 0.00 | 0.00 | ||
| 20260904211829 | 97 | 0 | 10.0 | 16.0 | 0.00 | 0.00 | 0.00 | ||
| 20260904210824 | 96 | 355 | 10.0 | 19.0 | 0.00 | 0.00 | 0.00 | ||
| 20260904205330 | 96 | 348 | 4.0 | 15.0 | 0.00 | 0.00 | 0.00 | ||
| 20260904204817 | 96 | 0 | 10.0 | 15.0 | 0.00 | 0.00 | 0.00 | ||
| 20260904204338 | 96 | 0 | 6.0 | 15.0 | 0.00 | 0.00 | 0.00 | ||
| 20260904203830 | 96 | 357 | 6.0 | 19.0 | 0.00 | 0.00 | 0.00 | ||
| 20260904203330 | 95 | 0 | 5.0 | 19.0 | 0.00 | 0.00 | 0.00 | ||
| 20260904202831 | 95 | 353 | 7.0 | 15.0 | 0.00 | 0.00 | 0.00 | ||
| 20260904202332 | 95 | 358 | 6.0 | 15.0 | 0.00 | 0.00 | 0.00 | ||
| 20260904201833 | 95 | 0 | 10.0 | 15.0 | 0.00 | 0.00 | 0.00 | ||
| 20260904201333 | 95 | 359 | 8.0 | 16.0 | 0.00 | 0.00 | 0.00 | ||
| 20260904200827 | 94 | 353 | 9.0 | 17.0 | 0.00 | 0.00 | 0.00 | ||
| 20260904200330 | 94 | 354 | 6.0 | 21.0 | 0.00 | 0.00 | 0.00 | ||
| 20260904194837 | 94 | 359 | 13.0 | 21.0 | 0.00 | 0.00 | 0.00 | ||
| 20260904194339 | 94 | 0 | 8.0 | 15.0 | 0.00 | 0.00 | 0.00 | ||
| 20260904193830 | 93 | 356 | 8.0 | 15.0 | 0.00 | 0.00 | 0.00 | ||
| 20260904193316 | 93 | 0 | 11.0 | 15.0 | 0.00 | 0.00 | 0.00 | ||
| 20260904192819 | 93 | 0 | 8.0 | 15.0 | 0.00 | 0.00 | 0.00 | ||
| 20260904192318 | 93 | 0 | 7.0 | 16.0 | 0.00 | 0.00 | 0.00 | ||
| 20260904191823 | 92 | 0 | 11.0 | 19.0 | 0.00 | 0.00 | 0.00 | ||
| 20260904191348 | 92 | 0 | 13.0 | 19.0 | 0.00 | 0.00 | 0.00 | ||
| 20260904190322 | 92 | 359 | 8.0 | 20.0 | 0.00 | 0.00 | 0.00 | ||
| 20260904185827 | 92 | 359 | 10.0 | 20.0 | 0.00 | 0.00 | 0.00 | ||
| 20260904185329 | 91 | 354 | 7.0 | 20.0 | 0.00 | 0.00 | 0.00 | ||
| 20260904184828 | 91 | 0 | 6.0 | 17.0 | 0.00 | 0.00 | 0.00 | ||
| 20260904184330 | 91 | 0 | 7.0 | 17.0 | 0.00 | 0.00 | 0.00 | ||
| 20260904183822 | 91 | 359 | 6.0 | 14.0 | 0.00 | 0.00 | 0.00 | ||
| 20260904182827 | 90 | 0 | 8.0 | 16.0 | 0.00 | 0.00 | 0.00 | ||
| 20260904182333 | 90 | 0 | 8.0 | 15.0 | 0.00 | 0.00 | 0.00 | ||
| 20260904181834 | 90 | 359 | 9.0 | 16.0 | 0.00 | 0.00 | 0.00 | ||
| 20260904181335 | 90 | 348 | 8.0 | 16.0 | 0.00 | 0.00 | 0.00 | ||
| 20260904180829 | 89 | 343 | 9.0 | 16.0 | 0.00 | 0.00 | 0.00 | ||
| 20260904180331 | 89 | 0 | 5.0 | 14.0 | 0.00 | 0.00 | 0.00 | ||
| 20260904175831 | 88 | 0 | 11.0 | 15.0 | 0.00 | 0.00 | 0.00 | ||
| 20260904175334 | 88 | 0 | 7.0 | 17.0 | 0.00 | 0.00 | 0.00 | ||
| 20260904174833 | 88 | 359 | 10.0 | 17.0 | 0.00 | 0.00 | 0.00 | ||
| 20260904174336 | 88 | 0 | 8.0 | 15.0 | 0.00 | 0.00 | 0.00 | ||
| 20260904173832 | 87 | 359 | 8.0 | 14.0 | 0.00 | 0.00 | 0.00 | ||
| 20260904173333 | 87 | 357 | 7.0 | 14.0 | 0.00 | 0.00 | 0.00 | ||
| 20260904172834 | 87 | 359 | 6.0 | 19.0 | 0.00 | 0.00 | 0.00 | ||
| 20260904172319 | 86 | 357 | 10.0 | 20.0 | 0.00 | 0.00 | 0.00 | ||
| 20260904171840 | 86 | 0 | 11.0 | 21.0 | 0.00 | 0.00 | 0.00 | ||
| 20260904171332 | 85 | 357 | 8.0 | 21.0 | 0.00 | 0.00 | 0.00 | ||
| 20260904170837 | 85 | 0 | 11.0 | 20.0 | 0.00 | 0.00 | 0.00 | ||
| 20260904170338 | 85 | 0 | 12.0 | 20.0 | 0.00 | 0.00 | 0.00 | ||
| 20260904165837 | 84 | 359 | 6.0 | 12.0 | 0.00 | 0.00 | 0.00 | ||
| 20260904165320 | 84 | 0 | 8.0 | 15.0 | 0.00 | 0.00 | 0.00 | ||
| 20260904164823 | 84 | 358 | 7.0 | 18.0 | 0.00 | 0.00 | 0.00 | ||
| 20260904164345 | 83 | 358 | 11.0 | 18.0 | 0.00 | 0.00 | 0.00 | ||
| 20260904163818 | 83 | 359 | 9.0 | 16.0 | 0.00 | 0.00 | 0.00 | ||
| 20260904163320 | 82 | 0 | 8.0 | 16.0 | 0.00 | 0.00 | 0.00 | ||
| 20260904162821 | 82 | 0 | 6.0 | 14.0 | 0.00 | 0.00 | 0.00 | ||
| 20260904162323 | 82 | 0 | 8.0 | 14.0 | 0.00 | 0.00 | 0.00 | ||
| 20260904161829 | 82 | 359 | 6.0 | 13.0 | 0.00 | 0.00 | 0.00 | ||
| 20260904161332 | 81 | 0 | 7.0 | 15.0 | 0.00 | 0.00 | 0.00 | ||
| 20260904160825 | 81 | 352 | 11.0 | 15.0 | 0.00 | 0.00 | 0.00 | ||
| 20260904160325 | 81 | 359 | 10.0 | 16.0 | 0.00 | 0.00 | 0.00 | ||
| 20260904155827 | 80 | 356 | 7.0 | 16.0 | 0.00 | 0.00 | 0.00 | ||
| 20260904155329 | 80 | 359 | 10.0 | 16.0 | 0.00 | 0.00 | 0.00 | ||
| 20260904154831 | 80 | 0 | 7.0 | 17.0 | 0.00 | 0.00 | 0.00 | ||
| 20260904153827 | 79 | 359 | 6.0 | 14.0 | 0.00 | 0.00 | 0.00 | ||
| 20260904153327 | 79 | 359 | 8.0 | 12.0 | 0.00 | 0.00 | 0.00 | ||
| 20260904152827 | 79 | 359 | 7.0 | 15.0 | 0.00 | 0.00 | 0.00 | ||
| 20260904152328 | 79 | 0 | 9.0 | 15.0 | 0.00 | 0.00 | 0.00 | ||
| 20260904151828 | 79 | 0 | 10.0 | 14.0 | 0.00 | 0.00 | 0.00 | ||
| 20260904151319 | 78 | 359 | 8.0 | 14.0 | 0.00 | 0.00 | 0.00 | ||
| 20260904150825 | 78 | 359 | 6.0 | 14.0 | 0.00 | 0.00 | 0.00 | ||
| 20260904150325 | 78 | 0 | 7.0 | 14.0 | 0.00 | 0.00 | 0.00 | ||
| 20260904145827 | 78 | 0 | 6.0 | 17.0 | 0.00 | 0.00 | 0.00 | ||
| 20260904145328 | 78 | 0 | 6.0 | 17.0 | 0.00 | 0.00 | 0.00 | ||
| 20260904143826 | 77 | 353 | 5.0 | 14.0 | 0.00 | 0.00 | 0.00 | ||
| 20260904143328 | 77 | 0 | 6.0 | 13.0 | 0.00 | 0.00 | 0.00 | ||
| 20260904142829 | 77 | 0 | 5.0 | 8.0 | 0.00 | 0.00 | 0.00 | ||
| 20260904142330 | 77 | 359 | 4.0 | 7.0 | 0.00 | 0.00 | 0.00 | ||
| 20260904140833 | 77 | 350 | 5.0 | 10.0 | 0.00 | 0.00 | 0.00 | ||
| 20260904140336 | 77 | 354 | 5.0 | 12.0 | 0.00 | 0.00 | 0.00 | ||
| 20260904135837 | 77 | 0 | 6.0 | 15.0 | 0.00 | 0.00 | 0.00 | ||
| 20260904135318 | 77 | 355 | 7.0 | 15.0 | 0.00 | 0.00 | 0.00 | ||
| 20260904134825 | 77 | 359 | 4.0 | 10.0 | 0.00 | 0.00 | 0.00 | ||
| 20260904134328 | 77 | 348 | 5.0 | 12.0 | 0.00 | 0.00 | 0.00 | ||
| 20260904133820 | 77 | 0 | 7.0 | 12.0 | 0.00 | 0.00 | 0.00 | ||
| 20260904133321 | 77 | 0 | 4.0 | 12.0 | 0.00 | 0.00 | 0.00 | ||
| 20260904132823 | 77 | 0 | 6.0 | 12.0 | 0.00 | 0.00 | 0.00 | ||
| 20260904132325 | 77 | 359 | 6.0 | 12.0 | 0.00 | 0.00 | 0.00 | ||
| 20260904131829 | 77 | 345 | 6.0 | 12.0 | 0.00 | 0.00 | 0.00 | ||
| 20260904131333 | 77 | 0 | 5.0 | 10.0 | 0.00 | 0.00 | 0.00 | ||
| 20260904130827 | 77 | 0 | 7.0 | 12.0 | 0.00 | 0.00 | 0.00 | ||
| 20260904130327 | 77 | 359 | 6.0 | 12.0 | 0.00 | 0.00 | 0.00 | ||
| 20260904125333 | 77 | 0 | 6.0 | 13.0 | 0.00 | 0.00 | 0.00 | ||
| 20260904124835 | 77 | 348 | 8.0 | 14.0 | 0.00 | 0.00 | 0.00 | ||
| 20260904123830 | 77 | 344 | 7.0 | 11.0 | 0.00 | 0.00 | 0.00 | ||
| 20260904123335 | 77 | 358 | 5.0 | 12.0 | 0.00 | 0.00 | 0.00 | ||
| 20260904122817 | 77 | 0 | 7.0 | 12.0 | 0.00 | 0.00 | 0.00 | ||
| 20260904122318 | 77 | 0 | 6.0 | 12.0 | 0.00 | 0.00 | 0.00 | ||
| 20260904121345 | 78 | 0 | 6.0 | 13.0 | 0.00 | 0.00 | 0.00 | ||
| 20260904120838 | 78 | 0 | 4.0 | 13.0 | 0.00 | 0.00 | 0.00 | ||
| 20260904120319 | 78 | 0 | 4.0 | 11.0 | 0.00 | 0.00 | 0.00 | ||
| 20260904115327 | 78 | 0 | 5.0 | 12.0 | 0.00 | 0.00 | 0.00 | ||
| 20260904114828 | 78 | 359 | 5.0 | 11.0 | 0.00 | 0.00 | 0.00 | ||
| 20260904114330 | 78 | 13 | 7.0 | 11.0 | 0.00 | 0.00 | 0.00 | ||
| 20260904112828 | 78 | 0 | 6.0 | 11.0 | 0.00 | 0.00 | 0.00 | ||
| 20260904112330 | 78 | 0 | 5.0 | 11.0 | 0.00 | 0.00 | 0.00 | ||
| 20260904111833 | 78 | 0 | 6.0 | 10.0 | 0.00 | 0.00 | 0.00 | ||
| 20260904110833 | 78 | 0 | 5.0 | 11.0 | 0.00 | 0.00 | 0.00 | ||
| 20260904105318 | 78 | 359 | 4.0 | 13.0 | 0.00 | 0.00 | 0.00 | ||
| 20260904104819 | 78 | 0 | 5.0 | 8.0 | 0.00 | 0.00 | 0.00 | ||
| 20260904104342 | 78 | 307 | 3.0 | 10.0 | 0.00 | 0.00 | 0.00 | ||
| 20260904103836 | 78 | 330 | 5.0 | 12.0 | 0.00 | 0.00 | 0.00 | ||
| 20260904103319 | 78 | 355 | 6.0 | 12.0 | 0.00 | 0.00 | 0.00 | ||
| 20260904102820 | 78 | 352 | 5.0 | 12.0 | 0.00 | 0.00 | 0.00 | ||
| 20260904102320 | 78 | 359 | 9.0 | 12.0 | 0.00 | 0.00 | 0.00 | ||
| 20260904101840 | 78 | 358 | 4.0 | 7.0 | 0.00 | 0.00 | 0.00 | ||
| 20260904101333 | 78 | 0 | 4.0 | 7.0 | 0.00 | 0.00 | 0.00 | ||
| 20260904100338 | 78 | 0 | 3.0 | 8.0 | 0.00 | 0.00 | 0.00 | ||
| 20260904095837 | 78 | 296 | 4.0 | 6.0 | 0.00 | 0.00 | 0.00 | ||
| 20260904095320 | 78 | 0 | 4.0 | 7.0 | 0.00 | 0.00 | 0.00 | ||
| 20260904094823 | 78 | 0 | 4.0 | 7.0 | 0.00 | 0.00 | 0.00 | ||
| 20260904093820 | 78 | 355 | 3.0 | 6.0 | 0.00 | 0.00 | 0.00 | ||
| 20260904093321 | 78 | 341 | 4.0 | 6.0 | 0.00 | 0.00 | 0.00 | ||
| 20260904092825 | 78 | 358 | 3.0 | 8.0 | 0.00 | 0.00 | 0.00 | ||
| 20260904092325 | 78 | 63 | 4.0 | 8.0 | 0.00 | 0.00 | 0.00 | ||
| 20260904091329 | 78 | 111 | 3.0 | 6.0 | 0.00 | 0.00 | 0.00 | ||
| 20260904090820 | 77 | 0 | 2.0 | 5.0 | 0.00 | 0.00 | 0.00 | ||
| 20260904090321 | 77 | 0 | 2.0 | 3.0 | 0.00 | 0.00 | 0.00 | ||
| 20260904085822 | 77 | 353 | 1.0 | 3.0 | 0.00 | 0.00 | 0.00 | ||
| 20260904085323 | 77 | 349 | 2.0 | 4.0 | 0.00 | 0.00 | 0.00 | ||
| 20260904084822 | 77 | 0 | 2.0 | 4.0 | 0.00 | 0.00 | 0.00 | ||
| 20260904084343 | 77 | 0 | 2.0 | 4.0 | 0.00 | 0.00 | 0.00 | ||
| 20260904083820 | 77 | 0 | 3.0 | 4.0 | 0.00 | 0.00 | 0.00 | ||
| 20260904082826 | 77 | 0 | 1.0 | 3.0 | 0.00 | 0.00 | 0.00 | ||
| 20260904082327 | 77 | 0 | 2.0 | 3.0 | 0.00 | 0.00 | 0.00 | ||
| 20260904081829 | 77 | 0 | 0.0 | 2.0 | 0.00 | 0.00 | 0.00 | ||
| 20260904081331 | 78 | 0 | 1.0 | 3.0 | 0.00 | 0.00 | 0.00 | ||
| 20260904080825 | 78 | 0 | 1.0 | 3.0 | 0.00 | 0.00 | 0.00 | ||
| 20260904080327 | 78 | 0 | 2.0 | 3.0 | 0.00 | 0.00 | 0.00 | ||
| 20260904075828 | 78 | 0 | 1.0 | 2.0 | 0.00 | 0.00 | 0.00 | ||
| 20260904075330 | 79 | 0 | 1.0 | 2.0 | 0.00 | 0.00 | 0.00 | ||
| 20260904074830 | 79 | 0 | 0.0 | 3.0 | 0.00 | 0.00 | 0.00 | ||
| 20260904073827 | 79 | 0 | 0.0 | 4.0 | 0.00 | 0.00 | 0.00 | ||
| 20260904073329 | 79 | 0 | 2.0 | 5.0 | 0.00 | 0.00 | 0.00 | ||
| 20260904072829 | 79 | 0 | 2.0 | 6.0 | 0.00 | 0.00 | 0.00 | ||
| 20260904072335 | 79 | 0 | 3.0 | 6.0 | 0.00 | 0.00 | 0.00 | ||
| 20260904071816 | 79 | 289 | 2.0 | 4.0 | 0.00 | 0.00 | 0.00 | ||
| 20260904071339 | 79 | 0 | 1.0 | 4.0 | 0.00 | 0.00 | 0.00 | ||
| 20260904070831 | 79 | 0 | 1.0 | 2.0 | 0.00 | 0.00 | 0.00 | ||
| 20260904070330 | 80 | 300 | 0.0 | 1.0 | 0.00 | 0.00 | 0.00 | ||
| 20260904065830 | 80 | 352 | 0.0 | 1.0 | 0.00 | 0.00 | 0.00 | ||
| 20260904065333 | 80 | 236 | 0.0 | 2.0 | 0.00 | 0.00 | 0.00 | ||
| 20260904064833 | 80 | 215 | 0.0 | 2.0 | 0.00 | 0.00 | 0.00 | ||
| 20260904064335 | 81 | 248 | 0.0 | 3.0 | 0.00 | 0.00 | 0.00 | ||
| 20260904063826 | 81 | 0 | 0.0 | 2.0 | 0.00 | 0.00 | 0.00 | ||
| 20260904063326 | 81 | 0 | 0.0 | 2.0 | 0.00 | 0.00 | 0.00 | ||
| 20260904062828 | 81 | 0 | 0.0 | 2.0 | 0.00 | 0.00 | 0.00 | ||
| 20260904062329 | 82 | 0 | 0.0 | 2.0 | 0.00 | 0.00 | 0.00 | ||
| 20260904061832 | 82 | 0 | 0.0 | 2.0 | 0.00 | 0.00 | 0.00 | ||
| 20260904061335 | 82 | 0 | 0.0 | 1.0 | 0.00 | 0.00 | 0.00 | ||
| 20260904060827 | 83 | 0 | 0.0 | 3.0 | 0.00 | 0.00 | 0.00 | ||
| 20260904055832 | 83 | 0 | 2.0 | 4.0 | 0.00 | 0.00 | 0.00 | ||
| 20260904055335 | 83 | 0 | 2.0 | 3.0 | 0.00 | 0.00 | 0.00 | ||
| 20260904054836 | 84 | 0 | 1.0 | 3.0 | 0.00 | 0.00 | 0.00 | ||
| 20260904054336 | 84 | 0 | 2.0 | 4.0 | 0.00 | 0.00 | 0.00 | ||
| 20260904053829 | 84 | 0 | 2.0 | 8.0 | 0.00 | 0.00 | 0.00 | ||
| 20260904053333 | 85 | 0 | 1.0 | 8.0 | 0.00 | 0.00 | 0.00 |